Regional Weather Roundup
Issued by NWS

Home | Current Version | Previous Version | Graphics & Text | Print | Product List | Glossary On
Versions: 1 2 3 4 5 6 7 8 9 10 11 12 13 14 15 16 17 18 19 20 21 22 23 24 25 26 27 28 29 30 31 32 33 34 35 36 37 38 39 40 41 42 43 44 45 46 47 48 49
000
ASUS45 KSLC 270610
RWRUT

UTAH REGIONAL WEATHER ROUNDUP
NATIONAL WEATHER SERVICE SALT LAKE CITY UT
1200 AM MDT WED AUG 27 2014

UTZ001>011-023>025-270700-

NORTHERN UTAH

CITY           SKY/WX    TMP DP  RH WIND       PRES   REMARKS
HILL AFB       CLOUDY    63  51  65 N5        30.19F
LOGAN          MOCLDY    60  50  69 S8        30.17S
OGDEN          CLOUDY    64  51  62 CALM      30.17F
PROVO AIRPORT  CLOUDY    61  54  77 S5        30.21R
SALT LAKE CITY CLOUDY    61  55  81 S3        30.15F
VERNAL         CLOUDY    59  50  72 CALM      30.23F
WENDOVER       CLOUDY    63  48  59 W8        30.18S
HEBER CITY     CLOUDY    55  50  82 CALM      30.22F
WEST JORDAN    CLOUDY    61  61 100 CALM      30.18F

$$

UTZ012>022-026-027-270700-

SOUTHERN UTAH

CITY           SKY/WX    TMP DP  RH WIND       PRES   REMARKS
BRYCE CANYON   RAIN      47  43  86 W12       30.42R
CEDAR CITY     CLOUDY    59  41  51 VRB3      30.20F
MILFORD        CLOUDY    57  51  80 CALM      30.22R
MOAB/CYNLANDS  CLOUDY    66  52  60 CALM      30.18S
PRICE          CLOUDY    59  47  64 E7        30.25S
ST GEORGE      CLOUDY    66  52  59 S8        30.13R
KANAB          MOCLDY    55  48  76 N13G21    30.28F

$$

REGIONAL REPORTS     COLORADO/ARIZONA

CITY           SKY/WX    TMP DP  RH WIND       PRES   REMARKS
CRAIG, CO      CLOUDY    57  50  77 W7        30.26S
GRAND JUNCTION CLOUDY    58  57  97 SE7       30.24S
RIFLE          LGT RAIN  57  53  86 W14       30.27R
MONTROSE       LGT RAIN  57  55  93 CALM      30.33S
CORTEZ         MOCLDY    56  53  90 N8        30.28S
PAGE, AZ       CLOUDY    66  49  54 NW10      30.24R
GRAND CANYON     N/A    N/A N/A N/A MISG        N/A
KINGMAN        CLEAR     71  59  65 SE10      30.08R
FLAGSTAFF      PTCLDY    48  46  93 CALM      30.35F

$$

REGIONAL REPORTS    NEVADA/IDAHO/WYOMING

CITY           SKY/WX    TMP DP  RH WIND       PRES   REMARKS
LAS VEGAS, NV  PTCLDY    84  26  12 S5        29.93R
ELY            CLEAR     43  41  93 S9        30.27R
ELKO           PTCLDY    57  45  64 E7        30.21R
POCATELLO, ID  PTCLDY    57  50  77 S3        30.16F
BURLEY         PTCLDY    61  49  64 S12       30.15S
EVANSTON, WY   CLOUDY    54  43  66 CALM      30.29F
ROCK SPRINGS   MOCLDY    54  43  66 SW5       30.28F

$$


USA.gov is the U.S. government's official web portal to all federal, state and local government web resources and services.